Regional Weather Roundup
Issued by NWS

Home | Current Version | Previous Version | Text Only | Print | Product List | Glossary Off
Versions: 1 2 3 4 5 6 7 8 9 10 11 12 13 14 15 16 17 18 19 20 21 22 23 24 25 26 27 28 29 30 31 32 33 34 35 36 37 38 39 40 41 42 43 44 45 46 47 48 49 50

675
ASUS43 KMKX 250000
RWRWI

WISCONSIN REGIONAL WEATHER ROUNDUP
NATIONAL WEATHER SERVICE MILWAUKEE/SULLIVAN WI
700 PM CDT MON JUL 24 2017

NOTE: "FAIR" INDICATES FEW OR NO CLOUDS BELOW 12,000 FEET WITH NO
SIGNIFICANT WEATHER AND/OR OBSTRUCTIONS TO VISIBILITY.

WIZ001-002-006>008-014>016-023>028-250100-
NORTHWEST WISCONSIN

CITY           SKY/WX    TMP DP  RH WIND       PRES   REMARKS
SUPERIOR ARPT  NOT AVBL
ASHLAND        SUNNY     71  57  61 NE7       30.06R
6HR MIN TEMP:  70; 6HR MAX TEMP:  76;

HAYWARD        SUNNY     74  55  51 S6        30.06S
6HR MIN TEMP:  71; 6HR MAX TEMP:  76;

SIREN          SUNNY     75  56  51 S8        30.05S
CUMBERLAND     CLOUDY    70  55  60 S6        30.07S
RICE LAKE      CLOUDY    73  54  52 S7        30.07F
CHETEK         CLOUDY    73  57  59 S5        30.06F
LADYSMITH      SUNNY     76  56  50 S8        30.08S
EAU CLAIRE     NOT AVBL
MENOMONIE      SUNNY     73  60  64 S5        30.06R
6HR MIN TEMP:  69; 6HR MAX TEMP:  77;

NEW RICHMOND   SUNNY     73  58  57 SE5       30.06R
OSCEOLA        MOSUNNY   76  60  57 SE8       30.06S
$$

WIZ003>005-009-010-017-018-250100-
NORTH CENTRAL WISCONSIN

CITY           SKY/WX    TMP DP  RH WIND       PRES   REMARKS
MANITOWISH WTR SUNNY     74  51  44 S5        30.08S
6HR MIN TEMP:  70; 6HR MAX TEMP:  75;

ARBOR VITAE    SUNNY     77  55  46 S5        30.08S
WOODRUFF       SUNNY     77  55  46 S5        30.08S
RHINELANDER    SUNNY     75  52  44 S7        30.09S
6HR MIN TEMP:  72; 6HR MAX TEMP:  77;

EAGLE RIVER    SUNNY     74  46  36 CALM      30.08S
LAND O LAKES   SUNNY     75  47  36 S6        30.10S
6HR MIN TEMP:  73; 6HR MAX TEMP:  78;

PHILLIPS       SUNNY     73  56  55 S5        30.07S
6HR MIN TEMP:  70; 6HR MAX TEMP:  75;

TOMAHAWK         N/A     73  54  50 CALM      30.09S
MEDFORD        SUNNY     73  55  53 S9        30.08F
MERRILL        SUNNY     75  55  49 SW5       30.09S
6HR MIN TEMP:  71; 6HR MAX TEMP:  77;

$$

WIZ029-030-035-036-043>047-250100-
CENTRAL WISCONSIN

CITY           SKY/WX    TMP DP  RH WIND       PRES   REMARKS
WAUSAU         SUNNY     74  54  49 S9        30.07S
6HR MIN TEMP:  72; 6HR MAX TEMP:  76;

MOSINEE        MOSUNNY   73  55  53 SE6       30.10S
MARSHFIELD     SUNNY     73  55  53 S9        30.08S
6HR MIN TEMP:  71; 6HR MAX TEMP:  76;

STEVENS POINT  SUNNY     73  54  51 SE7       30.09S
WAUPACA        SUNNY     78  49  36 E5        30.09S
WAUTOMA        SUNNY     74  57  55 SE5       30.09S
6HR MIN TEMP:  71; 6HR MAX TEMP:  75;

WISC RAPIDS    SUNNY     75  55  49 S8        30.09S
6HR MIN TEMP:  73; 6HR MAX TEMP:  80;

CAMP DOUGLAS   NOT AVBL
$$

WIZ011>013-019>022-031-037>040-048>050-250100-
NORTHEAST WISCONSIN

CITY           SKY/WX    TMP DP  RH WIND       PRES   REMARKS
ANTIGO         SUNNY     71  54  55 S9        30.10S
6HR MIN TEMP:  70; 6HR MAX TEMP:  74;

SHAWANO        SUNNY     75  53  46 SE3       30.09S
OCONTO         SUNNY     72  51  47 S3        30.09S
STURGEON BAY     N/A     69  54  58 SE6       30.10
6HR MIN TEMP:  69; 6HR MAX TEMP:  73;

GREEN BAY      SUNNY     72  57  59 SE5       30.09S
6HR MIN TEMP:  71; 6HR MAX TEMP:  76;

MANITOWOC      NOT AVBL
APPLETON       MOSUNNY   73  52  46 VRB5      30.08S
CLINTONVILLE   SUNNY    N/A N/A N/A SE3       30.09S
OSHKOSH        SUNNY     73  52  47 E5        30.08F
6HR MIN TEMP:  70; 6HR MAX TEMP:  75;

$$

WIZ032>034-041-042-053>061-250100-
SOUTHWEST WISCONSIN

CITY           SKY/WX    TMP DP  RH WIND       PRES   REMARKS
LA CROSSE      MOSUNNY   77  60  55 SE7       30.05F
6HR MIN TEMP:  72; 6HR MAX TEMP:  78;

SPARTA         CLOUDY    73  59  62 SE5       30.08S
6HR MIN TEMP:  69; 6HR MAX TEMP:  75;

VIROQUA        MOSUNNY   72  61  68 CALM      30.09S
6HR MIN TEMP:  68; 6HR MAX TEMP:  73;

BOSCOBEL       MOSUNNY   74  61  63 CALM      30.08R
6HR MIN TEMP:  73; 6HR MAX TEMP:  76;

PRAIRIE DU CHI MOSUNNY   73  59  62 E3        30.06S
PLATTEVILLE    CLOUDY    73  62  67 E8        30.08S
$$

WIZ056-057-062-063-064-067-068-250100-
SOUTH CENTRAL WISCONSIN

CITY           SKY/WX    TMP DP  RH WIND       PRES   REMARKS
REEDSBURG      SUNNY     73  58  60 CALM      30.07F
6HR MIN TEMP:  69; 6HR MAX TEMP:  75;

BARABOO/DELLS  SUNNY     74  55  50 SE3       30.08F
LONE ROCK      NOT AVBL
MINERAL POINT  CLOUDY    75  61  60 E6        30.09S
MADISON        PTSUNNY   72  57  59 E7        30.07S
6HR MIN TEMP:  71; 6HR MAX TEMP:  77;

MIDDLETON      SUNNY     75  57  52 E5        30.08S
6HR MIN TEMP:  71; 6HR MAX TEMP:  77;

WATERTOWN      SUNNY     72  54  52 E7        30.08S
MONROE         MOSUNNY   73  57  56 E3        30.08S
JANESVILLE     PTSUNNY   73  55  53 E9        30.07F
$$

WIZ051-052-058>065-066-070>072-250100-
SOUTHEAST WISCONSIN

CITY           SKY/WX    TMP DP  RH WIND       PRES   REMARKS
MILWAUKEE      MOSUNNY   69  57  65 N9        30.09S
6HR MIN TEMP:  69; 6HR MAX TEMP:  71;

WAUKESHA       SUNNY     68  48  49 E6        30.11R
MILWAUKEE/TIMM SUNNY     70  45  40 NE7       30.10S
RACINE         SUNNY     68  59  73 N9        30.11S
6HR MIN TEMP:  67; 6HR MAX TEMP:  71;

KENOSHA        SUNNY     70  57  63 NE8       30.09S
6HR MIN TEMP:  69; 6HR MAX TEMP:  73;

FOND DU LAC    SUNNY     73  49  42 E10       30.09S
6HR MIN TEMP:  72; 6HR MAX TEMP:  76;

SHEBOYGAN      SUNNY     69  57  65 NE7       30.09F
6HR MIN TEMP:  69; 6HR MAX TEMP:  71;

WEST BEND      SUNNY     70  50  49 NE8       30.10R
JUNEAU         SUNNY     72  53  51 CALM      30.10S
$$

LSZ147-162-250100-
LAKE SUPERIOR

STATION/POSITION TIME  TEMP    WIND        PRES    WAVE
                       AIR SEA DIR/SP/G            HT/PER
                 (UTC) (F)     (DEG/KT/KT) (MB)    (FT/S)
W MID LAKE BUOY  2250   58 56   30/  4/  4 1017.8F   0
DEVILS ISLAND    2300   62      90/  7/  8 1017.6F
SAXON HARBOR     2330   67      30/  6/  7 1017.3S
$$

LMZ867-665-643>646-250100-
LAKE MICHIGAN

STATION/POSITION TIME  TEMP    WIND        PRES    WAVE
                       AIR SEA DIR/SP/G            HT/PER
                 (UTC) (F)     (DEG/KT/KT) (MB)    (FT/S)
CHAMBERS ISLAND  2330   72      80/  2/  4 1017.9S
S GREEN BAY BUOY 2330   71 73  260/  4/  4 1018.6S
N MID LAKE BUOY  2250   68 68  210/  2/  4 1019.0R   1
NORTHPORT PIER   2340   70     160/  4/  6 1018.3S
KEWAUNEE LAKESHO 2330   68      90/  1/  3 1018.4F
SHEBOYGAN LAKESH 2300   67      20/ 12/ 13 1018.7R
PORT WASHINGTON  2330   70      40/  9/ 11 1020.0R
ATWATER BUOY     2209   67 68   20/ 12/ 16 1018.8
MILWAUKEE LAKESH 2330   67      30/ 10/ 11   N/A
S MID LAKE BUOY  2250   67 70  360/ 14/ 16 1018.1R   4/ 6
KENOSHA   LAKESH 2300   66      30/ 14/ 16 1018.3
$$

TC  - TEMPERATURE IN CELSIUS
VSB - VISIBILITY IN STATUTE MILES
WCI - WIND CHILL INDEX
HX  - HEAT INDEX





USA.gov is the U.S. government's official web portal to all federal, state and local government web resources and services.